Flag for Austria Weather past 2 weeks in Bruck an der Leitha, Lower Austria, Austria

Now
60 °F

Partly sunny.


Feels Like: 60 °F
Forecast: 53 / 73 °F
Wind: N/A

Location: Wien / Schwechat-Flughafen

Current Time: Apr 26, 2015 at 10:29:29 AM

Latest Report: Apr 26, 2015 at 9:00 AM


Visibility: 17 mi

Pressure: 29.86 "Hg

Humidity: 65%

Dew point: 48 °F

Location of Bruck an der LeithaLocation

Historic Weather in Bruck an der Leitha — Graph

°F

Bruck an der Leitha temperature yesterday

Maximum temperature yesterday: 73 °F (at 5:00 PM)
Minimum temperature yesterday: 43 °F (at 6:00 AM)
Average temperature yesterday: 59 °F

Past Weeks' High & Low Weather Summary

 TemperatureHumidityPressure
High77 °F (Apr 16, 1:00 PM)96% (Apr 17, 6:00 PM)30.42 "Hg (Apr 17, 6:00 PM)
Low31 °F (Apr 19, 7:00 AM)18% (Apr 16, 2:00 PM)29.80 "Hg (Apr 17, 4:00 PM)
Average56 °F53%30.11 "Hg
* Reported Apr 11 9:00 AM — Apr 26 9:00 AM, Bruck an der Leitha, Weather by CustomWeather, © 2015

Note: Actual official high and low records may vary slightly from our data, if they occured in-between our weather recording intervals... More about our weather records

Advertising

Bruck an der Leitha weather history for previous 24 hours

 ConditionsComfort  
Time TempWeatherWind HumidityBarometerVisibility
9:00 AM
Sun, Apr 26
60 °FPartly sunny.N/A65%29.86 "Hg17 mi
8:00 AM57 °FOvercast.N/A72%29.86 "Hg19 mi
7:00 AM55 °FOvercast.5 mph72%29.85 "Hg19 mi
6:00 AM52 °FOvercast.N/A84%29.84 "Hg12 mi
4:00 AM54 °FOvercast.5 mph79%29.83 "Hg17 mi
3:00 AM54 °FOvercast.N/A78%29.83 "Hg17 mi
2:00 AM55 °FOvercast.N/A72%29.83 "Hg19 mi
1:00 AM54 °FOvercast.3 mph76%29.84 "Hg22 mi
12:00 AM57 °FOvercast.5 mph69%29.83 "Hg25 mi
10:00 PM
Sat, Apr 25
63 °FOvercast.6 mph53%29.82 "Hg28 mi
9:00 PM65 °FOvercast.7 mph47%29.82 "Hg28 mi
8:00 PM66 °FOvercast.6 mph42%29.81 "Hg28 mi
7:00 PM70 °FPartly sunny.8 mph35%29.81 "Hg28 mi
6:00 PM72 °FScattered clouds.8 mph33%29.81 "Hg22 mi
5:00 PM73 °FScattered clouds.8 mph34%29.81 "Hg16 mi
4:00 PM73 °FScattered clouds.9 mph36%29.82 "Hg19 mi
3:00 PM72 °FPartly sunny.9 mph37%29.85 "Hg19 mi
2:00 PM71 °FScattered clouds.7 mph39%29.87 "Hg22 mi
1:00 PM70 °FScattered clouds.6 mph43%29.90 "Hg17 mi
12:00 PM67 °FScattered clouds.6 mph51%29.92 "Hg19 mi
11:00 AM63 °FScattered clouds.5 mph58%29.94 "Hg16 mi
10:00 AM58 °FPassing clouds.N/A67%29.96 "Hg14 mi
Weather by CustomWeather, © 2015

See weather overviewHow to use our weather pages